Radiation Dose at Monitoring Post of Fukushima Daini Nuclear Power Station
Date,Time,MP-1(microSv/h),MP-2(microSv/h),MP-3(microSv/h),MP-4(microSv/h),MP-5(microSv/h),MP-6(microSv/h),MP-7(microSv/h),Wind Direction,Wind Velocity(m/s),Rain
2024/01/16,00:00,0.150,0.136,0.212,0.202,0.208,0.121,0.078,north-northwest,3.1,No
2024/01/16,00:10,0.149,0.136,0.212,0.203,0.207,0.120,0.078,north-northwest,3.8,Yes
2024/01/16,00:20,0.150,0.136,0.213,0.202,0.208,0.121,0.078,north-northwest,4.1,Yes
2024/01/16,00:30,0.150,0.136,0.212,0.202,0.208,0.121,0.078,north-northwest,2.4,Yes
2024/01/16,00:40,0.150,0.136,0.213,0.202,0.209,0.121,0.078,northwest,2.8,No
2024/01/16,00:50,0.150,0.136,0.213,0.203,0.207,0.121,0.077,northwest,2.5,Yes
2024/01/16,01:00,0.151,0.136,0.214,0.202,0.208,0.121,0.077,north-northwest,2.3,Yes
2024/01/16,01:10,0.150,0.135,0.212,0.202,0.208,0.121,0.077,north-northwest,2.6,No
2024/01/16,01:20,0.150,0.135,0.213,0.202,0.209,0.121,0.077,north-northwest,2.0,No
2024/01/16,01:30,0.149,0.135,0.213,0.203,0.208,0.121,0.078,northwest,1.4,No
2024/01/16,01:40,0.150,0.136,0.212,0.201,0.208,0.121,0.078,west-northwest,1.9,No
2024/01/16,01:50,0.150,0.136,0.213,0.202,0.209,0.121,0.078,west-northwest,2.4,No
2024/01/16,02:00,0.150,0.136,0.211,0.203,0.208,0.122,0.078,west-northwest,3.9,No
2024/01/16,02:10,0.150,0.135,0.212,0.201,0.207,0.121,0.078,west-northwest,3.6,No
2024/01/16,02:20,0.148,0.135,0.213,0.202,0.208,0.121,0.077,northwest,3.5,No
2024/01/16,02:30,0.149,0.135,0.211,0.201,0.208,0.121,0.078,north-northwest,4.6,No
2024/01/16,02:40,0.150,0.135,0.213,0.201,0.208,0.120,0.077,north-northwest,5.5,Yes
2024/01/16,02:50,0.151,0.136,0.211,0.202,0.208,0.122,0.077,northwest,5.8,No
2024/01/16,03:00,0.149,0.135,0.212,0.201,0.208,0.120,0.078,northwest,5.9,No
2024/01/16,03:10,0.150,0.135,0.211,0.202,0.207,0.121,0.078,north-northwest,6.6,No
2024/01/16,03:20,0.150,0.135,0.213,0.201,0.208,0.121,0.077,north-northwest,6.7,No
2024/01/16,03:30,0.149,0.136,0.212,0.201,0.208,0.121,0.077,north-northwest,5.4,Yes
2024/01/16,03:40,0.150,0.134,0.212,0.202,0.208,0.121,0.077,north-northwest,4.4,No
2024/01/16,03:50,0.150,0.136,0.211,0.202,0.209,0.120,0.077,north-northwest,4.4,No
2024/01/16,04:00,0.150,0.135,0.212,0.202,0.207,0.121,0.078,northwest,3.7,No
2024/01/16,04:10,0.150,0.135,0.212,0.201,0.208,0.121,0.077,northwest,4.1,No
2024/01/16,04:20,0.150,0.135,0.211,0.201,0.207,0.120,0.077,northwest,4.6,Yes
2024/01/16,04:30,0.150,0.135,0.211,0.201,0.208,0.120,0.077,northwest,4.8,Yes
2024/01/16,04:40,0.150,0.136,0.212,0.202,0.208,0.121,0.078,west-northwest,4.4,Yes
2024/01/16,04:50,0.149,0.135,0.212,0.201,0.208,0.120,0.078,west-northwest,4.0,Yes
2024/01/16,05:00,0.149,0.136,0.212,0.202,0.207,0.121,0.078,west-northwest,4.1,Yes
2024/01/16,05:10,0.150,0.136,0.212,0.202,0.208,0.120,0.077,west-northwest,3.5,No
2024/01/16,05:20,0.150,0.135,0.213,0.202,0.208,0.121,0.078,northwest,3.6,No
2024/01/16,05:30,0.150,0.135,0.213,0.202,0.208,0.121,0.078,northwest,4.5,No
2024/01/16,05:40,0.149,0.136,0.212,0.201,0.208,0.121,0.079,west-northwest,3.8,Yes
2024/01/16,05:50,0.150,0.135,0.212,0.201,0.208,0.120,0.078,west-northwest,3.3,No
2024/01/16,06:00,0.150,0.135,0.212,0.202,0.206,0.120,0.078,northwest,5.1,No
2024/01/16,06:10,0.149,0.135,0.212,0.201,0.207,0.120,0.077,northwest,7.4,Yes
2024/01/16,06:20,0.150,0.135,0.213,0.204,0.208,0.120,0.077,west-northwest,7.0,Yes
2024/01/16,06:30,0.150,0.135,0.213,0.201,0.208,0.121,0.078,west-northwest,7.3,Yes
2024/01/16,06:40,0.150,0.135,0.213,0.201,0.208,0.121,0.079,west-northwest,6.5,Yes
2024/01/16,06:50,0.150,0.136,0.212,0.202,0.209,0.120,0.078,northwest,6.1,No
2024/01/16,07:00,0.150,0.136,0.212,0.203,0.209,0.121,0.078,west-northwest,8.2,No
2024/01/16,07:10,0.150,0.135,0.212,0.201,0.207,0.121,0.079,west-northwest,8.7,No
2024/01/16,07:20,0.150,0.136,0.212,0.201,0.207,0.121,0.078,west-northwest,9.0,No
2024/01/16,07:30,0.148,0.135,0.212,0.202,0.207,0.121,0.078,west-northwest,7.9,No
2024/01/16,07:40,0.150,0.135,0.211,0.202,0.207,0.120,0.077,west-northwest,7.0,No
2024/01/16,07:50,0.149,0.135,0.213,0.201,0.208,0.120,0.078,west-northwest,7.0,No
2024/01/16,08:00,0.150,0.136,0.211,0.202,0.207,0.120,0.077,west-northwest,7.0,No
2024/01/16,08:10,0.150,0.136,0.211,0.201,0.208,0.120,0.077,northwest,6.2,No
2024/01/16,08:20,0.151,0.136,0.212,0.200,0.207,0.121,0.077,northwest,7.3,No
2024/01/16,08:30,0.150,0.135,0.211,0.201,0.208,0.119,0.077,northwest,4.8,No
2024/01/16,08:40,0.149,0.136,0.211,0.200,0.207,0.120,0.077,west-northwest,5.8,No
2024/01/16,08:50,0.149,0.135,0.211,0.202,0.209,0.120,0.077,west-northwest,5.3,No
2024/01/16,09:00,0.148,0.134,0.212,0.200,0.208,0.120,0.077,west-northwest,3.9,No
2024/01/16,09:10,0.150,0.134,0.212,0.201,0.208,0.120,0.076,northwest,5.8,No
2024/01/16,09:20,0.150,0.135,0.211,0.200,0.207,0.120,0.077,west-northwest,4.5,No
2024/01/16,09:30,0.149,0.134,0.211,0.200,0.207,0.120,0.077,northwest,6.8,No
2024/01/16,09:40,0.148,0.135,0.211,0.201,0.207,0.120,0.077,west-northwest,8.4,No
2024/01/16,09:50,0.149,0.134,0.212,0.200,0.208,0.120,0.077,west-northwest,9.2,No
2024/01/16,10:00,0.150,0.134,0.212,0.200,0.207,0.120,0.077,northwest,7.6,Yes
2024/01/16,10:10,0.149,0.135,0.210,0.201,0.207,0.120,0.078,northwest,4.8,No
2024/01/16,10:20,0.150,0.134,0.211,0.202,0.206,0.120,0.076,west-northwest,7.0,No
2024/01/16,10:30,0.149,0.134,0.210,0.202,0.208,0.120,0.077,northwest,5.4,No
2024/01/16,10:40,0.148,0.135,0.210,0.200,0.206,0.120,0.077,northwest,5.3,No
2024/01/16,10:50,0.148,0.134,0.210,0.201,0.207,0.121,0.077,northwest,5.4,No
2024/01/16,11:00,0.149,0.134,0.210,0.202,0.208,0.120,0.078,northwest,7.8,No
2024/01/16,11:10,0.149,0.134,0.211,0.201,0.208,0.121,0.078,northwest,6.3,No
2024/01/16,11:20,0.149,0.135,0.211,0.201,0.208,0.120,0.078,northwest,8.2,No
2024/01/16,11:30,0.148,0.135,0.211,0.201,0.206,0.120,0.077,northwest,7.7,No
2024/01/16,11:40,0.149,0.135,0.211,0.201,0.209,0.121,0.077,northwest,8.5,No
2024/01/16,11:50,0.149,0.135,0.212,0.201,0.208,0.120,0.077,northwest,10.9,No
2024/01/16,12:00,0.149,0.135,0.211,0.201,0.207,0.121,0.077,northwest,7.3,No
2024/01/16,12:10,0.149,0.135,0.211,0.201,0.208,0.122,0.077,west-northwest,9.2,No
2024/01/16,12:20,0.149,0.135,0.211,0.200,0.208,0.121,0.078,west-northwest,10.1,No
2024/01/16,12:30,0.148,0.135,0.211,0.201,0.208,0.120,0.077,west-northwest,9.6,No
2024/01/16,12:40,0.148,0.135,0.211,0.201,0.208,0.120,0.076,west-northwest,8.1,No
2024/01/16,12:50,0.149,0.134,0.210,0.201,0.208,0.121,0.077,west-northwest,9.0,No
2024/01/16,13:00,0.148,0.134,0.211,0.200,0.208,0.120,0.077,northwest,9.0,No
2024/01/16,13:10,0.149,0.135,0.211,0.202,0.207,0.120,0.078,northwest,7.3,No
2024/01/16,13:20,0.148,0.135,0.211,0.202,0.208,0.121,0.077,northwest,10.6,No
2024/01/16,13:30,0.149,0.136,0.212,0.202,0.207,0.121,0.077,northwest,8.2,No
2024/01/16,13:40,0.149,0.135,0.211,0.201,0.208,0.121,0.077,northwest,9.7,No
2024/01/16,13:50,0.149,0.134,0.211,0.201,0.207,0.122,0.077,northwest,9.6,No
2024/01/16,14:00,0.149,0.134,0.210,0.201,0.208,0.121,0.078,west-northwest,12.5,No
2024/01/16,14:10,0.149,0.135,0.212,0.202,0.207,0.121,0.077,northwest,12.0,No
2024/01/16,14:20,0.149,0.134,0.211,0.202,0.208,0.120,0.077,northwest,10.9,No
2024/01/16,14:30,0.149,0.136,0.212,0.201,0.208,0.122,0.077,northwest,11.7,No
2024/01/16,14:40,0.149,0.134,0.211,0.201,0.207,0.120,0.078,northwest,9.5,No
2024/01/16,14:50,0.149,0.135,0.212,0.201,0.209,0.120,0.078,northwest,9.6,No
2024/01/16,15:00,0.149,0.135,0.212,0.202,0.208,0.120,0.077,northwest,10.1,No
2024/01/16,15:10,0.150,0.135,0.211,0.203,0.209,0.120,0.078,northwest,11.5,No
2024/01/16,15:20,0.149,0.135,0.213,0.201,0.208,0.120,0.078,northwest,9.2,No
2024/01/16,15:30,0.150,0.136,0.212,0.202,0.208,0.120,0.077,north-northwest,7.8,No
2024/01/16,15:40,0.150,0.135,0.212,0.202,0.208,0.120,0.077,northwest,8.1,No
2024/01/16,15:50,0.149,0.135,0.211,0.203,0.209,0.119,0.078,north-northwest,6.4,No
2024/01/16,16:00,0.149,0.135,0.212,0.202,0.207,0.121,0.077,north-northwest,8.1,No
2024/01/16,16:10,0.150,0.135,0.213,0.201,0.208,0.121,0.077,northwest,7.6,No
2024/01/16,16:20,0.150,0.136,0.212,0.201,0.208,0.121,0.077,northwest,5.6,No
2024/01/16,16:30,0.150,0.135,0.211,0.203,0.208,0.120,0.077,north-northwest,6.3,No
2024/01/16,16:40,0.151,0.136,0.212,0.203,0.207,0.121,0.077,west-northwest,4.1,No
2024/01/16,16:50,0.149,0.136,0.211,0.202,0.207,0.121,0.077,west-northwest,2.8,No
2024/01/16,17:00,0.148,0.136,0.212,0.201,0.208,0.120,0.077,west-northwest,2.7,No
2024/01/16,17:10,0.148,0.136,0.212,0.202,0.208,0.120,0.077,west,4.5,No
2024/01/16,17:20,0.150,0.135,0.211,0.201,0.208,0.121,0.077,west,3.9,No
2024/01/16,17:30,0.150,0.136,0.212,0.201,0.208,0.121,0.077,west,3.6,No
2024/01/16,17:40,0.150,0.136,0.213,0.201,0.208,0.121,0.078,west,4.8,No
2024/01/16,17:50,0.149,0.136,0.212,0.202,0.207,0.120,0.077,west,5.1,No
2024/01/16,18:00,0.149,0.135,0.212,0.202,0.208,0.121,0.077,west-northwest,6.8,No
2024/01/16,18:10,0.149,0.135,0.212,0.202,0.208,0.121,0.077,west-northwest,5.8,No
2024/01/16,18:20,0.150,0.135,0.213,0.201,0.208,0.120,0.078,west-northwest,5.2,No
2024/01/16,18:30,0.150,0.135,0.211,0.202,0.208,0.121,0.077,west-northwest,6.3,No
2024/01/16,18:40,0.150,0.135,0.213,0.202,0.208,0.120,0.077,west-northwest,5.3,No
2024/01/16,18:50,0.149,0.136,0.212,0.202,0.209,0.121,0.077,northwest,4.9,No
2024/01/16,19:00,0.148,0.135,0.213,0.201,0.208,0.121,0.077,northwest,4.5,No
2024/01/16,19:10,0.150,0.135,0.212,0.202,0.209,0.121,0.078,northwest,4.9,No
2024/01/16,19:20,0.149,0.135,0.212,0.203,0.209,0.120,0.078,north-northwest,5.6,No
2024/01/16,19:30,0.149,0.136,0.211,0.201,0.209,0.120,0.078,north-northwest,6.1,No
2024/01/16,19:40,0.150,0.135,0.213,0.201,0.209,0.120,0.077,northwest,7.3,No
2024/01/16,19:50,0.150,0.136,0.212,0.202,0.208,0.121,0.078,north-northwest,7.1,No
2024/01/16,20:00,0.150,0.135,0.211,0.202,0.207,0.120,0.078,north-northwest,8.9,No
2024/01/16,20:10,0.150,0.136,0.211,0.201,0.208,0.120,0.077,north-northwest,8.7,No
2024/01/16,20:20,0.150,0.135,0.211,0.202,0.207,0.120,0.077,north-northwest,9.2,No
2024/01/16,20:30,0.149,0.135,0.212,0.201,0.208,0.121,0.077,northwest,6.5,No
2024/01/16,20:40,0.149,0.135,0.213,0.201,0.207,0.121,0.078,north-northwest,7.0,No
2024/01/16,20:50,0.149,0.136,0.211,0.201,0.208,0.121,0.078,north-northwest,7.0,No
2024/01/16,21:00,0.149,0.135,0.212,0.202,0.208,0.120,0.077,north-northwest,6.8,No
2024/01/16,21:10,0.149,0.135,0.212,0.201,0.208,0.121,0.078,north-northwest,7.1,No
2024/01/16,21:20,0.150,0.135,0.213,0.202,0.209,0.120,0.077,north-northwest,6.5,No
2024/01/16,21:30,0.150,0.136,0.212,0.203,0.209,0.121,0.077,north-northwest,8.1,No
2024/01/16,21:40,0.150,0.135,0.212,0.202,0.208,0.121,0.076,north-northwest,7.9,No
2024/01/16,21:50,0.150,0.135,0.212,0.202,0.209,0.121,0.077,north-northwest,8.1,No
2024/01/16,22:00,0.149,0.135,0.212,0.201,0.208,0.121,0.078,north-northwest,7.0,No
2024/01/16,22:10,0.150,0.135,0.212,0.201,0.208,0.120,0.077,north-northwest,6.3,No
2024/01/16,22:20,0.149,0.136,0.211,0.201,0.208,0.121,0.077,north-northwest,6.4,No
2024/01/16,22:30,0.150,0.135,0.211,0.202,0.208,0.121,0.077,northwest,5.2,No
2024/01/16,22:40,0.150,0.135,0.212,0.202,0.208,0.121,0.077,northwest,2.5,No
2024/01/16,22:50,0.150,0.135,0.212,0.202,0.208,0.121,0.076,northwest,2.9,No
2024/01/16,23:00,0.149,0.135,0.211,0.202,0.208,0.121,0.078,west-northwest,3.9,No
2024/01/16,23:10,0.149,0.135,0.212,0.202,0.208,0.120,0.077,north-northwest,4.4,No
2024/01/16,23:20,0.149,0.135,0.211,0.202,0.208,0.122,0.077,northwest,2.9,No
2024/01/16,23:30,0.150,0.135,0.211,0.201,0.207,0.121,0.077,north-northwest,3.2,No
2024/01/16,23:40,0.149,0.135,0.211,0.202,0.208,0.121,0.077,north-northwest,2.8,No
2024/01/16,23:50,0.149,0.136,0.212,0.202,0.208,0.120,0.077,north-northwest,1.5,No
